Regional Weather Roundup
Issued by NWS Goodland, KS

Home | Current Version | Previous Version | Text Only | Print | Product List | Glossary On
Versions: 1 2 3 4 5 6 7 8 9 10 11 12 13 14 15 16 17 18 19 20 21 22 23 24 25 26 27 28 29 30 31 32 33 34 35 36 37 38 39 40 41 42 43 44 45 46 47 48 49 50
000
ASUS43 KGLD 030608
RWRGLD

GOODLAND FORECAST AREA HOURLY WEATHER ROUNDUP
NATIONAL WEATHER SERVICE GOODLAND KS
1200 AM MDT FRI JUL 03 2015

...OFFICIAL OBSERVATIONS...

CITY           SKY/WX    TMP DP  RH WIND       PRES   REMARKS
GOODLAND KS    PTCLDY    65  56  72 E5        30.10S
HILL CITY KS   CLEAR     67  60  78 N6        30.02R
IMPERIAL NEB   CLEAR     63  58  83 NE3       30.09S
MCCOOK NEB     CLEAR     68  59  73 CALM      30.04S
AKRON CO       MOCLDY    67  57  70 SE7       30.18S
BURLINGTON CO  MOCLDY    66  55  67 CALM      30.14S
LIMON CO       CLOUDY    64  57  78 W7        30.24R
$$

...UNOFFICIAL OBSERVATIONS...

CITY           SKY/WX    TMP DP  RH WIND       PRES   REMARKS
COLBY KS       CLEAR     68  61  77 NE7       30.08S
GOVE KS          N/A     66  32  28 MISG        N/A
NORTON KS      CLEAR     63  55  77 N3        30.02
SHARON SPRINGS   N/A     68  56  66 CALM        N/A
KIT CARSON CO    N/A     69  57  65 MISG        N/A
$$


USA.gov is the U.S. government's official web portal to all federal, state and local government web resources and services.